一网星座-0113星 (ONEWEB-0113 )

导读 | 星芒AI

ONEWEB-0113 是 OneWeb 卫星星座计划中的一颗低轨通信卫星,旨在为全球提供高速互联网服务。该卫星于2023年发射,运行在约1200公里高度的近极地轨道,采用先进通信技术,支持宽带接入和远程连接。OneWeb 项目致力于填补数字鸿沟,特别是在偏远和农村地区。ONEWEB-0113 与星座中其他卫星协同工作,提升全球网络覆盖和通信能力。

基本信息
目录编号:
48050
目录名称:
ONEWEB-0113
国际标识:
2021-025J
轨道中心:
EARTH
卫星名称:
一网星座-0113星
卫星全名:
一网星座-0113星 (ONEWEB-0113 )
卫星状态:
在轨 (已飞行1680 天)
发射日期:
2021-03-25 UTC
国别 :
英国 (GB)
星等 :
--
轨道信息
数据来源 国际轨道数据
星历时间: 2025-10-30T05:24:39+0800
8小时前
查看轨道信息
半长轴: 7585.935km
偏心率: 0.0001585
轨道倾角: 87.904°
近地点辐角 101.845°
升交点赤经 5.940°
平近点角 258.286°
近地点: 1206.597km
远地点: 1209.003km
周期: 109.591分钟
每日圈数: 13.139812
详细信息
平衡模式:
三轴稳定
覆盖范围:
全球
运营商:
一网卫星公司
运营商所在国:
英国
制造商(研发单位):
一网卫星公司
制造商所在国:
英国
使用方式:
暂无
卫星简介
OneWeb卫星网络由648颗重约125公斤的微型卫星组成,运行在1200公里的轨道上。 每颗卫星都能够提供至少每秒8千兆位的吞吐量,以使用其高吞吐量的Ku频段有效载荷为家庭和移动平台提供互联网接入。该卫星仍在工作。
2D轨道图
3D轨道图
轨道高度分析图
轨道倾角分析图
轨道综合分析图
查看轨道综合分析图